Home   Weather   Sutton Coldfield   Past weeks

Flag for United Kingdom Past Weather in Sutton Coldfield, England, United Kingdom — Yesterday and Last 2 Weeks

Now
43 °F

Overcast.


Feels Like: 41 °F
Forecast: 29 / 42 °F
Wind: 3 mph from North

Location: Birmingham / Airport

Current Time: Jan 23, 2017 at 1:04:09 pm

Latest Report: Jan 23, 2017 at 12:20 pm


Visibility: 3 mi

Pressure: 30.33 "Hg

Humidity: 93%

Dew Point: 41 °F

Location of Sutton ColdfieldLocation

Past Weather in Sutton Coldfield — Graph

°F

Sutton Coldfield Temperature Yesterday

Maximum temperature yesterday: 37 °F (at 1:20 pm)
Minimum temperature yesterday: 27 °F (at 1:20 am)
Average temperature yesterday: 32 °F

High & Low Weather Summary for the Past Weeks

 TemperatureHumidityPressure
High52 °F (Jan 11, 5:20 am)100% (Jan 8, 11:20 am)30.66 "Hg (Jan 8, 11:20 am)
Low27 °F (Jan 22, 1:20 am)53% (Jan 11, 2:20 pm)29.42 "Hg (Jan 12, 5:50 pm)
Average40 °F94%30.20 "Hg
* Reported Jan 8 11:20 am — Jan 23 11:50 am, Sutton Coldfield, Weather by CustomWeather, © 2017

Note: Actual official high and low records may vary slightly from our data, if they occured in-between our weather recording intervals... More about our weather records

Advertising

Sutton Coldfield Weather History for the Previous 24 Hours

Scroll right to see more
 ConditionsComfort  
Time TempWeatherWind HumidityBarometerVisibility
11:50 am
Mon, Jan 23
43 °FPartly sunny.3 mph87%30.33 "Hg3 mi
11:20 am43 °FHaze.3 mph87%30.36 "Hg3 mi
10:50 am39 °FFog.3 mph100%30.36 "Hg3 mi
10:20 am39 °FFog.5 mph100%30.36 "Hg3 mi
9:50 am39 °FFog.2 mph100%30.36 "Hg2 mi
9:20 am39 °FFog.2 mph100%30.33 "Hg2 mi
8:50 am37 °FFog.3 mph100%30.33 "Hg2 mi
8:20 am36 °FFog.3 mph100%30.33 "Hg1 mi
7:50 am36 °FFog.2 mph100%30.33 "Hg1 mi
7:20 am36 °FFog.No wind100%30.33 "Hg2 mi
6:50 am36 °FFog.3 mph100%30.33 "Hg2 mi
6:20 am36 °FFog.No wind100%30.33 "Hg3 mi
5:50 am36 °FFog.No wind100%30.33 "Hg2 mi
5:20 am36 °FFog.2 mph100%30.33 "Hg2 mi
4:50 am36 °FFog.2 mph100%30.30 "Hg2 mi
4:20 am37 °FFog.2 mph100%30.30 "Hg2 mi
3:50 am37 °FFog.3 mph100%30.30 "Hg2 mi
3:20 am37 °FFog.2 mph100%30.30 "Hg2 mi
2:50 am37 °FFog.5 mph100%30.30 "Hg2 mi
2:20 am37 °FFog.3 mph100%30.30 "Hg2 mi
1:50 am34 °FFog.No wind100%30.30 "Hg2 mi
1:20 am34 °FFog.3 mph100%30.33 "Hg2 mi
12:50 am36 °FFog.2 mph100%30.33 "Hg3 mi
12:20 am34 °FFog.No wind100%30.33 "Hg1 mi
11:50 pm
Sun, Jan 22
34 °FFog.3 mph100%30.33 "Hg1 mi
11:20 pm36 °FFog.2 mph100%30.33 "Hg2 mi
10:50 pm36 °FFog.2 mph100%30.33 "Hg2 mi
10:20 pm36 °FFog.3 mph100%30.33 "Hg3 mi
9:50 pm36 °FFog.3 mph100%30.33 "Hg2 mi
9:20 pm34 °FFog.3 mph100%30.33 "Hg3 mi
8:50 pm36 °FFog.5 mph100%30.30 "Hg2 mi
8:20 pm36 °FFog.3 mph100%30.30 "Hg3 mi
7:50 pm36 °FFog.3 mph100%30.30 "Hg2 mi
7:20 pm34 °FFog.2 mph100%30.30 "Hg2 mi
6:50 pm34 °FFog.5 mph100%30.30 "Hg2 mi
6:20 pm34 °FFog.2 mph100%30.30 "Hg2 mi
5:50 pm36 °FFog.3 mph100%30.30 "Hg2 mi
5:20 pm36 °FFog.5 mph100%30.30 "Hg3 mi
4:50 pm36 °FFog.2 mph93%30.30 "Hg2 mi
4:20 pm37 °FFog.5 mph93%30.27 "Hg3 mi
3:50 pm37 °FScattered clouds.5 mph93%30.27 "Hg4 mi
3:20 pm37 °FPartly sunny.2 mph93%30.27 "Hg4 mi
2:50 pm37 °FScattered clouds.3 mph93%30.27 "Hg4 mi
2:20 pm37 °FPartly sunny.5 mph93%30.27 "Hg4 mi
1:50 pm37 °FScattered clouds.8 mph93%30.27 "Hg4 mi
1:20 pm37 °FFog.9 mph93%30.27 "Hg3 mi
Weather by CustomWeather, © 2017

See weather overviewHow to use our weather pages